Погода в Пайсанду

Уругвай     32°18′43″S   58°04′17″W
темп.,
°C
ветер,
м/с
пор.,
м/с
влажн.,
%
обл.,
%
осадки,
мм/ч
давл.,
гПа
погр.,
м
9 августа, вт
вт900:00+11вюв3977100 0.0 1027443
03:00+9ююв3681100 0.3 1028260
06:00+8юв2893100 2.3 1028324
09:00+8ююв4886100 2.8 1030348
12:00+12юв576753 0.0 1031975
15:00+14юв675715 0.0 10291409
18:00+11ююв34730 0.0 102963
21:00+8юв35770 0.0 103070
10 августа, ср
ср1000:00+7юв47810 0.0 1030113
03:00+6вюв36910 0.0 1029105
06:00+5в36940 0.0 1028111
09:00+7в24823 0.0 1029146
12:00+12всв446183 0.0 1028737
15:00+14св445468 0.0 1026976
18:00+11всв357486 0.0 102474
21:00+7св468199 0.0 1025101
11 августа, чт
чт1100:00+6св488493 0.0 1025123
03:00+6св37920 0.0 1024115
06:00+5св36940 0.0 1024100
09:00+8ссв47870 0.0 1025200
12:00+15с57680 0.0 1025782
15:00+16с56620 0.0 10221130
18:00+13ссв34790 0.0 102066
21:00+10св46915 0.0 102184
12 августа, пт
пт1200:00+9св4993100 0.0 1020163
03:00+9св41295100 0.0 1019245
06:00+8св41096100 0.0 1018219
09:00+11св41189100 0.0 1018290
12:00+17ссв6871100 0.0 1017646
15:00+19с6767100 0.0 1014995
18:00+16ссв358562 0.0 101494
21:00+13св47930 0.0 1016110
13 августа, сб
сб1300:00+12ссв38945 0.0 1016143
03:00+12ссв33940 0.0 101642
06:00+11св22930 0.0 101619
09:00+13св34880 0.0 1017125
12:00+19всв33680 0.0 1018604
15:00+21всв44610 0.0 10151019
18:00+18всв35800 0.0 101468
21:00+15всв49920 0.0 1015159